| time (UTC) | temp F | wind direction | speed MPH | gust MPH | rain 1hr in | rain 24hr in | rain mn in | humidity % | barometer mb |
| 20260506090006 | 74 | 217 | 0.0 | 1.0 | 0.00 | 0.00 | 0.00 | 91 | 1007.1 |
| 20260506084506 | 75 | 217 | 0.0 | 2.0 | 0.00 | 0.00 | 0.00 | 91 | 1007.1 |
| 20260506083005 | 75 | 217 | 0.0 | 1.0 | 0.00 | 0.00 | 0.00 | 91 | 1007.2 |
| 20260506081505 | 75 | 217 | 0.0 | 3.0 | 0.00 | 0.00 | 0.00 | 91 | 1007.1 |
| 20260506073006 | 75 | 214 | 0.0 | 4.0 | 0.00 | 0.00 | 0.00 | 91 | 1007.3 |
| 20260506071503 | 75 | 216 | 0.0 | 6.0 | 0.00 | 0.00 | 0.00 | 91 | 1007.2 |
| 20260506061557 | 75 | 215 | 0.0 | 1.0 | 0.00 | 0.00 | 0.00 | 90 | 1007.2 |
| 20260506044637 | 76 | 217 | 0.0 | 1.0 | 0.00 | 0.00 | 0.00 | 88 | 1006.6 |
| 20260506043043 | 76 | 217 | 0.0 | 1.0 | 0.00 | 0.00 | 0.00 | 88 | 1006.5 |
| 20260506041556 | 76 | 220 | 0.0 | 2.0 | 0.00 | 0.00 | 0.00 | 88 | 1006.3 |
| 20260506040042 | 76 | 220 | 0.0 | 5.0 | 0.00 | 0.00 | 0.00 | 87 | 1006.4 |
| 20260506034616 | 76 | 220 | 0.0 | 5.0 | 0.00 | 0.00 | 0.00 | 87 | 1006.1 |
| 20260506033041 | 76 | 221 | 0.0 | 3.0 | 0.00 | 0.00 | 0.00 | 86 | 1006.0 |
| 20260506031542 | 77 | 221 | 0.0 | 1.0 | 0.00 | 0.00 | 0.00 | 86 | 1005.7 |
| 20260506030039 | 76 | 221 | 0.0 | 2.0 | 0.00 | 0.00 | 0.00 | 86 | 1005.5 |
| 20260506024539 | 76 | 221 | 0.0 | 1.0 | 0.00 | 0.00 | 0.00 | 85 | 1005.0 |
| 20260506023100 | 77 | 221 | 0.0 | 0.0 | 0.00 | 0.00 | 0.00 | 84 | 1004.9 |
| 20260506021538 | 77 | 221 | 0.0 | 0.0 | 0.00 | 0.00 | 0.00 | 83 | 1004.7 |
| 20260506020039 | 77 | 221 | 0.0 | 1.0 | 0.00 | 0.00 | 0.00 | 83 | 1004.5 |
| 20260506014537 | 78 | 221 | 0.0 | 1.0 | 0.00 | 0.00 | 0.00 | 81 | 1004.5 |
| 20260506013040 | 78 | 221 | 0.0 | 0.0 | 0.00 | 0.00 | 0.00 | 79 | 1004.5 |
| 20260506011535 | 79 | 221 | 0.0 | 1.0 | 0.00 | 0.00 | 0.00 | 78 | 1004.3 |
| 20260506010041 | 80 | 221 | 0.0 | 1.0 | 0.00 | 0.00 | 0.00 | 77 | 1004.2 |
| 20260506004557 | 80 | 221 | 0.0 | 2.0 | 0.00 | 0.00 | 0.00 | 76 | 1004.1 |
| 20260506003044 | 81 | 221 | 0.0 | 5.0 | 0.00 | 0.00 | 0.00 | 75 | 1004.1 |
| 20260506001537 | 81 | 220 | 0.0 | 6.0 | 0.00 | 0.00 | 0.00 | 74 | 1004.2 |
| 20260506000032 | 82 | 222 | 0.0 | 4.0 | 0.00 | 0.00 | 0.00 | 74 | 1004.1 |
| 20260505234553 | 82 | 220 | 0.0 | 3.0 | 0.00 | 0.00 | 0.00 | 75 | 1004.0 |
| 20260505233036 | 82 | 211 | 1.0 | 8.0 | 0.00 | 0.00 | 0.00 | 73 | 1003.8 |
| 20260505231533 | 82 | 208 | 0.0 | 8.0 | 0.00 | 0.00 | 0.00 | 73 | 1003.8 |
| 20260505230038 | 83 | 196 | 1.0 | 8.0 | 0.00 | 0.00 | 0.00 | 72 | 1003.7 |
| 20260505224528 | 83 | 215 | 1.0 | 6.0 | 0.00 | 0.00 | 0.00 | 72 | 1003.7 |
| 20260505223030 | 83 | 208 | 1.0 | 11.0 | 0.00 | 0.00 | 0.00 | 72 | 1003.8 |
| 20260505221525 | 82 | 216 | 1.0 | 7.0 | 0.00 | 0.00 | 0.00 | 72 | 1003.8 |
| 20260505220033 | 83 | 212 | 1.0 | 9.0 | 0.00 | 0.00 | 0.00 | 70 | 1004.0 |
| 20260505214523 | 82 | 208 | 3.0 | 10.0 | 0.00 | 0.00 | 0.00 | 72 | 1004.1 |
| 20260505213021 | 82 | 221 | 2.0 | 9.0 | 0.00 | 0.00 | 0.00 | 72 | 1004.2 |
| 20260505211518 | 82 | 212 | 2.0 | 14.0 | 0.00 | 0.00 | 0.00 | 72 | 1004.4 |
| 20260505210015 | 82 | 220 | 1.0 | 10.0 | 0.00 | 0.00 | 0.00 | 72 | 1004.7 |
| 20260505204514 | 82 | 209 | 1.0 | 12.0 | 0.00 | 0.00 | 0.00 | 73 | 1004.8 |
| 20260505203013 | 82 | 229 | 0.0 | 10.0 | 0.00 | 0.00 | 0.00 | 74 | 1004.7 |
| 20260505201512 | 81 | 214 | 2.0 | 11.0 | 0.00 | 0.00 | 0.00 | 74 | 1004.7 |
| 20260505200008 | 81 | 214 | 3.0 | 12.0 | 0.00 | 0.00 | 0.00 | 75 | 1004.8 |
| 20260505194520 | 80 | 219 | 2.0 | 9.0 | 0.00 | 0.00 | 0.00 | 75 | 1005.1 |
| 20260505193019 | 81 | 204 | 2.0 | 16.0 | 0.00 | 0.00 | 0.00 | 74 | 1005.4 |
| 20260505191505 | 80 | 219 | 2.0 | 9.0 | 0.00 | 0.00 | 0.00 | 75 | 1005.4 |
| 20260505190003 | 79 | 219 | 2.0 | 15.0 | 0.00 | 0.00 | 0.00 | 77 | 1005.3 |
| 20260505184606 | 79 | 219 | 4.0 | 17.0 | 0.00 | 0.00 | 0.00 | 77 | 1005.5 |
| 20260505183057 | 78 | 214 | 1.0 | 16.0 | 0.00 | 0.00 | 0.00 | 79 | 1005.8 |
| 20260505181553 | 77 | 226 | 2.0 | 14.0 | 0.00 | 0.00 | 0.00 | 82 | 1005.9 |
| 20260505180058 | 77 | 213 | 3.0 | 13.0 | 0.00 | 0.00 | 0.00 | 82 | 1006.2 |
| 20260505174608 | 77 | 216 | 1.0 | 9.0 | 0.00 | 0.00 | 0.00 | 82 | 1006.3 |
| 20260505173049 | 76 | 211 | 1.0 | 8.0 | 0.00 | 0.00 | 0.00 | 84 | 1006.3 |
| 20260505171547 | 76 | 226 | 1.0 | 9.0 | 0.00 | 0.00 | 0.00 | 84 | 1006.5 |
| 20260505170110 | 75 | 220 | 0.0 | 7.0 | 0.00 | 0.00 | 0.00 | 86 | 1006.4 |
| 20260505164543 | 74 | 224 | 1.0 | 14.0 | 0.00 | 0.00 | 0.00 | 86 | 1006.6 |
| 20260505163044 | 74 | 245 | 2.0 | 10.0 | 0.00 | 0.00 | 0.00 | 87 | 1006.6 |
| 20260505161536 | 74 | 232 | 0.0 | 10.0 | 0.00 | 0.00 | 0.00 | 88 | 1006.6 |
| 20260505153031 | 73 | 254 | 0.0 | 13.0 | 0.00 | 0.00 | 0.00 | 88 | 1006.6 |
| 20260505151526 | 72 | 221 | 1.0 | 8.0 | 0.00 | 0.00 | 0.00 | 88 | 1006.5 |
| 20260505124507 | 71 | 223 | 1.0 | 10.0 | 0.00 | 0.00 | 0.00 | 87 | 1005.6 |
| 20260505123003 | 71 | 225 | 0.0 | 11.0 | 0.00 | 0.00 | 0.00 | 87 | 1005.4 |
| 20260505121502 | 70 | 210 | 0.0 | 9.0 | 0.00 | 0.00 | 0.00 | 87 | 1005.2 |
| 20260505120003 | 70 | 212 | 1.0 | 6.0 | 0.00 | 0.00 | 0.00 | 87 | 1005.2 |
| 20260505114501 | 70 | 212 | 1.0 | 6.0 | 0.00 | 0.00 | 0.00 | 87 | 1005.2 |
| 20260505113100 | 70 | 214 | 0.0 | 9.0 | 0.00 | 0.00 | 0.00 | 88 | 1005.1 |
| 20260505111609 | 70 | 219 | 1.0 | 10.0 | 0.00 | 0.00 | 0.00 | 88 | 1005.0 |
| 20260505101554 | 70 | 216 | 2.0 | 12.0 | 0.00 | 0.00 | 0.00 | 88 | 1005.5 |
| 20260505100055 | 70 | 218 | 2.0 | 13.0 | 0.00 | 0.00 | 0.00 | 87 | 1005.2 |
| 20260505094554 | 70 | 201 | 1.0 | 15.0 | 0.00 | 0.00 | 0.00 | 87 | 1005.3 |
| 20260505093054 | 70 | 226 | 1.0 | 15.0 | 0.00 | 0.00 | 0.00 | 88 | 1005.0 |
| 20260505091551 | 70 | 214 | 1.0 | 11.0 | 0.00 | 0.00 | 0.00 | 88 | 1005.1 |